Tracking 28125 objects as of 2-Oct-2023
HD Live streaming from Space Station
objects crossing your sky now

OBJECT D

Track OBJECT D now!
10-day predictions


NORAD ID: 51949
Int'l Code: 2022-023D
Perigee: 470.0 km
Apogee: 566.6 km
Inclination: 63.5 °
Period: 94.8 minutes
Semi major axis: 6889 km
RCS: Unknown
Launch date: March 5, 2022
Source: People's Republic of China (PRC)
Launch site: Xichang Space Center, China (XSC)
Your satellite tracking list
Your tracking list is empty




NASA's NSSDC Master Catalog

Two Line Element Set (TLE):
1 51949U 22023D   23275.45827499  .00031194  00000-0  14257-2 0  9993
2 51949  63.4636  31.5367 0070095 336.7646  23.0302 15.18226112 87597
Source of the keplerian elements: AFSPC